Jerez de la Frontera, Spain

2:50 AM CEST on September 24, 2017 (GMT +0200)
Jerez

Weather History for LEJR - October, 2012

Change the Weather History Date:

Saturday, October 13, 2012

  Actual Average Record
Temperature  
Mean Temperature 66 °F -  
Max Temperature 76 °F 71 °F 95 °F (2011)
Min Temperature 57 °F 52 °F 48 °F (2000)
Cooling Degree Days 2    
Growing Degree Days 16 (Base 50)    
Moisture  
Dew Point 53 °F    
Average Humidity 63    
Maximum Humidity 94    
Minimum Humidity 34    
Precipitation  
Precipitation 0.00 in 0.11 in - ()
Sea Level Pressure  
Sea Level Pressure 30.01 in    
Wind  
Wind Speed 4 mph ()    
Max Wind Speed 13 mph    
Max Gust Speed -    
Visibility 6.9 miles    
Events      
Averages and records for this station are not official NWS values.
T = Trace of Precipitation, MM = Missing Value Source: Averaged Metar Reports

Daily Weather History Graph

Daily Weather History Graph

Search for Another Location

Airport or City:

Trip Planner

Search our weather history database for the weather conditions in past years. The results will help you decide how hot, cold, wet, or windy it might be!

Date:

Astronomy

Oct. 13, 2012 Rise Set
Actual Time 8:30 AM CEST 7:50 PM CEST
Civil Twilight 8:04 AM CEST 8:16 PM CEST
Nautical Twilight 7:34 AM CEST 8:46 PM CEST
Astronomical Twilight 7:04 AM CEST 9:16 PM CEST
Moon 6:07 AM CEST (10/13) 6:23 PM CEST (10/13)
Length of Visible Light 12h 11m
Length of Day
11h 19m
Waning Crescent, 6% of the Moon is Illuminated
Oct 13
Waning Crescent
Oct 15
New
Oct 22
First Quarter
Oct 29
Full
Nov 7
Last Quarter

Hourly Weather History & Observations

Time (CEST) Temp. Dew Point Humidity Pressure Visibility Wind Dir Wind Speed Gust Speed Precip Events Conditions
2:00 AM 62 °F 56 °F 77% 30.04 in 12 mi North 2.3 mph - -  
5:00 AM 59.0 °F 55.4 °F 88% 30.01 in - Calm Calm - N/A   Clear
5:30 AM 57.2 °F 53.6 °F 88% 30.01 in - Calm Calm - N/A   Clear
6:00 AM 57.2 °F 55.4 °F 94% 30.01 in - Variable 1.2 mph - N/A   Clear
7:00 AM 57.2 °F 55.4 °F 94% 30.01 in - Variable 1.2 mph - N/A   Clear
7:30 AM 59.0 °F 55.4 °F 88% 30.01 in - Variable 2.3 mph - N/A   Clear
8:00 AM 58 °F 54 °F 83% 30.03 in 16 mi SW 2.3 mph - -   Scattered Clouds
8:00 AM 59.0 °F 53.6 °F 82% 30.01 in 6.2 mi Variable 2.3 mph - N/A   Partly Cloudy
8:30 AM 57.2 °F 53.6 °F 88% 30.01 in 6.2 mi Variable 2.3 mph - N/A   Partly Cloudy
9:00 AM 57.2 °F 51.8 °F 82% 30.01 in 6.2 mi Variable 1.2 mph - N/A   Partly Cloudy
9:30 AM 60.8 °F 55.4 °F 82% 30.01 in 6.2 mi Calm Calm - N/A   Partly Cloudy
10:30 AM 66.2 °F 50.0 °F 56% 30.04 in 6.2 mi Variable 1.2 mph - N/A   Partly Cloudy
11:00 AM 66.2 °F 51.8 °F 60% 30.04 in 6.2 mi Variable 1.2 mph - N/A   Partly Cloudy
12:30 PM 71.6 °F 50.0 °F 46% 30.04 in 6.2 mi WNW 8.1 mph - N/A   Partly Cloudy
1:00 PM 71.6 °F 48.2 °F 43% 30.04 in 6.2 mi West 6.9 mph - N/A   Partly Cloudy
1:30 PM 73.4 °F 48.2 °F 41% 30.04 in 6.2 mi West 8.1 mph - N/A   Partly Cloudy
2:00 PM 74 °F 52 °F 35% 30.04 in 37 mi West 10.4 mph - -   Scattered Clouds
2:00 PM 73.4 °F 46.4 °F 38% 30.04 in 6.2 mi West 9.2 mph - N/A   Partly Cloudy
2:30 PM 75.2 °F 44.6 °F 34% 30.04 in 6.2 mi WNW 8.1 mph - N/A   Partly Cloudy
3:00 PM 77.0 °F 46.4 °F 34% 30.01 in 6.2 mi West 6.9 mph - N/A   Partly Cloudy
3:30 PM 75.2 °F 44.6 °F 34% 30.01 in 6.2 mi WNW 10.4 mph - N/A   Partly Cloudy
4:00 PM 75.2 °F 48.2 °F 38% 30.01 in 6.2 mi West 11.5 mph - N/A   Partly Cloudy
4:30 PM 75.2 °F 50.0 °F 41% 30.01 in 6.2 mi WNW 10.4 mph - N/A   Partly Cloudy
5:00 PM 75.2 °F 48.2 °F 38% 29.98 in 6.2 mi West 11.5 mph - N/A   Partly Cloudy
5:30 PM 75.2 °F 50.0 °F 41% 29.98 in 6.2 mi West 10.4 mph - N/A   Partly Cloudy
6:00 PM 75.2 °F 48.2 °F 38% 29.98 in 6.2 mi WSW 12.7 mph - N/A   Partly Cloudy
6:30 PM 73.4 °F 50.0 °F 44% 29.98 in 6.2 mi WSW 12.7 mph - N/A   Partly Cloudy
7:00 PM 71.6 °F 53.6 °F 53% 29.98 in 6.2 mi WSW 11.5 mph - N/A   Partly Cloudy
7:30 PM 71.6 °F 55.4 °F 57% 29.98 in - WSW 11.5 mph - N/A   Clear
8:00 PM 69 °F 58 °F 60% 29.99 in 37 mi WSW 10.4 mph - -   Clear
8:00 PM 69.8 °F 57.2 °F 64% 29.98 in - WSW 10.4 mph - N/A   Clear
8:30 PM 68.0 °F 57.2 °F 68% 29.98 in - WSW 9.2 mph - N/A   Clear
9:00 PM 68.0 °F 57.2 °F 68% 30.01 in - WSW 5.8 mph - N/A   Clear
9:30 PM 66.2 °F 59.0 °F 78% 29.98 in - SW 3.5 mph - N/A   Clear
10:00 PM 64.4 °F 59.0 °F 83% 30.01 in - Variable 2.3 mph - N/A   Clear
10:30 PM 62.6 °F 59.0 °F 88% 30.01 in - South 3.5 mph - N/A   Clear
11:00 PM 62.6 °F 59.0 °F 88% 30.01 in - Variable 2.3 mph - N/A   Clear